Location: Unspecified
(52.4292°N, 19.3359°E)
Time: 01:18:41
(UTC+02:00)

A-11 Canister half - Pass Details

Date: 21 May 2024
Orbit: 1514 x 1685 km, 47.2° (Epoch: 20 June)

Event Time Altitude Azimuth Distance (km) Brightness Sun altitude
Rises 09:43:34 0° 285° (WNW) 4,670 11.1 43.4°
Reaches altitude 10° 09:47:08 10° 275° (W) 3,679 10.7 43.9°
Maximum altitude 09:54:28 28° 221° (SW) 2,560 10.4 44.9°
Drops below altitude 10° 10:01:51 10° 168° (SSE) 3,694 11.6 45.8°
Sets 10:05:28 0° 157° (SSE) 4,692 12.1 46.3°
